Regional Weather Roundup
Issued by NWS

Home | Current Version | Previous Version | Graphics & Text | Print | Product List | Glossary On
Versions: 1 2 3 4 5 6 7 8 9 10 11 12 13 14 15 16 17 18 19 20 21 22 23 24 25 26 27 28 29 30 31 32 33 34 35 36 37 38 39 40 41 42 43 44 45 46 47 48 49 50
446
ASUS43 KLMK 010902
RWRKY
KENTUCKY REGIONAL WEATHER ROUNDUP
NATIONAL WEATHER SERVICE LOUISVILLE KY
400 AM EST WED MAR 01 2017

NOTE "FAIR" INDICATES FEW OR NO CLOUDS BELOW 12,000 FEET
WITH NO SIGNIFICANT WEATHER AND/OR OBSTRUCTIONS TO VISIBILITY.

KYZ001>023-026-027-061>063-070>075-011000-
WESTERN AND SOUTH CENTRAL KENTUCKY

CITY           SKY/WX    TMP DP  RH WIND       PRES   REMARKS
PADUCAH        CLOUDY    71  61  70 SW18G29   29.63F
HENDERSON      CLOUDY   N/A N/A N/A MISG        N/A
OWENSBORO      CLOUDY    69  62  78 SW23G32   29.63F
HOPKINSVILLE   CLOUDY    72  62  70 SW25G39   29.72F
BOWLING GREEN  CLOUDY    70  62  76 SW20G28   29.74F
GLASGOW        NOT AVBL
$$

KYZ024-025-028>034-038-045-046-053-011000-
NORTH CENTRAL KENTUCKY

CITY           SKY/WX    TMP DP  RH WIND       PRES   REMARKS
LOUISVILLE/SDF TSTM      63  59  87 SW14      29.64F
LOUISVILLE/LOU TSTM      63  59  87 W18G26    29.65F
FORT KNOX      TSTM      63  63 100 S25G39    29.65F VSB 1/2
$$

KYZ035>037-039>044-047>052-055>060-089>105-011000-
NORTHEAST KENTUCKY

CITY           SKY/WX    TMP DP  RH WIND       PRES   REMARKS
LEXINGTON      TSTM      64  59  83 S33G44    29.61F
COVINGTON      TSTM      58  56  93 S9        29.61F
FRANKFORT      TSTM      63  57  81 SW21G36   29.69R
$$

KYZ054-064>069-076>088-106>120-011000-
SOUTHEAST KENTUCKY

CITY           SKY/WX    TMP DP  RH WIND       PRES   REMARKS
JACKSON        MOCLDY    63  56  78 S9G20     29.78F
LONDON         CLOUDY    66  56  70 SW18G30   29.84F
SOMERSET       CLOUDY    64  55  72 S9G17     29.83F
MIDDLESBORO    CLOUDY    63  60  89 SW9G30    29.91F
MONTICELLO     CLOUDY    68  59  73 S15G28    29.82F
$$





USA.gov is the U.S. government's official web portal to all federal, state and local government web resources and services.